Volver al catálogo

FENGYUN 1C DEB

ActivoSSO
NORAD 31949·DEBRIS·🇨🇳 China

Lanzado May 10, 1999 desde Taiyuan Satellite Launch Center

Loading…

Próximos Pases (próximas 24 horas)

TLE

EnvejeciendoSource: Space-Track

Época: Sep 9, 2026, 18:08 UTC

1 31949U 99025CNA 26252.75575271  .00000337  00000-0  17332-3 0  9999
2 31949  98.5716 233.2436 0126249 151.5225 209.2925 14.17276281993438

Sigue FENGYUN 1C DEB en tiempo real con AllMySat

Download on the App Store